TimeMST,TemperatureF,Dew PointF,Humidity,Sea Level PressureIn,VisibilityMPH,Wind Direction,Wind SpeedMPH,Gust SpeedMPH,PrecipitationIn,Events,Conditions,WindDirDegrees,DateUTC
12:53 AM,23.0,15.1,72,30.05,10.0,ESE,6.9,-,N/A,,Clear,110,2013-03-06 07:53:00
1:53 AM,21.0,14.0,74,30.05,10.0,ENE,3.5,-,N/A,,Clear,60,2013-03-06 08:53:00
2:53 AM,19.9,12.9,74,30.03,10.0,Calm,Calm,-,N/A,,Clear,0,2013-03-06 09:53:00
3:53 AM,18.0,12.0,78,30.02,10.0,Calm,Calm,-,N/A,,Clear,0,2013-03-06 10:53:00
4:53 AM,15.1,10.0,80,30.02,10.0,South,4.6,-,N/A,,Clear,190,2013-03-06 11:53:00
5:53 AM,15.1,10.0,80,30.01,10.0,Calm,Calm,-,N/A,,Clear,0,2013-03-06 12:53:00
6:53 AM,19.0,14.0,81,29.99,10.0,SSW,3.5,-,N/A,,Overcast,210,2013-03-06 13:53:00
7:53 AM,19.9,15.1,81,29.97,10.0,Calm,Calm,-,N/A,,Overcast,0,2013-03-06 14:53:00
8:53 AM,23.0,17.1,78,29.94,10.0,Calm,Calm,-,N/A,,Scattered Clouds,0,2013-03-06 15:53:00
9:53 AM,27.0,18.0,69,29.90,10.0,ENE,6.9,-,N/A,,Partly Cloudy,70,2013-03-06 16:53:00
10:53 AM,35.1,17.1,48,29.84,10.0,ENE,11.5,-,N/A,,Clear,60,2013-03-06 17:53:00
11:53 AM,37.9,17.1,43,29.79,10.0,East,10.4,-,N/A,,Clear,100,2013-03-06 18:53:00
12:53 PM,44.1,16.0,32,29.74,10.0,East,11.5,-,N/A,,Clear,100,2013-03-06 19:53:00
1:44 PM,48.2,24.8,40,29.66,10.0,WSW,10.4,25.3,N/A,,Overcast,250,2013-03-06 20:44:00
1:53 PM,46.9,24.1,41,29.73,10.0,WSW,9.2,-,N/A,,Overcast,250,2013-03-06 20:53:00
2:42 PM,44.6,26.6,49,29.68,10.0,West,12.7,23.0,N/A,,Overcast,280,2013-03-06 21:42:00
2:53 PM,44.1,25.0,47,29.76,10.0,NW,10.4,-,N/A,,Overcast,320,2013-03-06 21:53:00
3:53 PM,43.0,30.9,62,29.76,10.0,NNW,6.9,-,N/A,,Overcast,340,2013-03-06 22:53:00
4:53 PM,43.0,30.9,62,29.75,10.0,NNW,10.4,-,N/A,,Clear,330,2013-03-06 23:53:00
5:53 PM,44.1,28.9,55,29.73,10.0,WSW,6.9,16.1,N/A,,Mostly Cloudy,240,2013-03-07 00:53:00
6:41 PM,39.2,32.0,75,29.67,10.0,NW,12.7,-,N/A,,Scattered Clouds,310,2013-03-07 01:41:00
6:53 PM,39.0,32.0,76,29.77,10.0,NNW,10.4,-,N/A,,Partly Cloudy,330,2013-03-07 01:53:00
7:53 PM,36.0,30.9,82,29.80,10.0,WNW,5.8,-,N/A,,Clear,290,2013-03-07 02:53:00
8:53 PM,37.0,32.0,82,29.78,10.0,NNW,9.2,-,N/A,,Overcast,330,2013-03-07 03:53:00
9:53 PM,34.0,30.0,85,29.78,10.0,North,6.9,-,N/A,,Overcast,360,2013-03-07 04:53:00
10:53 PM,37.0,30.0,76,29.79,10.0,Variable,5.8,-,N/A,,Overcast,0,2013-03-07 05:53:00
11:53 PM,37.9,28.9,70,29.77,10.0,West,16.1,-,N/A,,Mostly Cloudy,270,2013-03-07 06:53:00